Regional Weather Roundup
Issued by NWS

Home | Current Version | Previous Version | Text Only | Print | Product List | Glossary Off
Versions: 1 2 3 4 5 6 7 8 9 10 11 12 13 14 15 16 17 18 19 20 21 22 23 24 25 26 27 28 29 30 31 32 33 34 35 36 37 38 39 40 41 42 43 44 45 46 47 48 49 50

000
ASUS43 KOAX 010802
RWRNE

WEATHER ROUNDUP FOR NEBRASKA
NATIONAL WEATHER SERVICE OMAHA NE
300 AM CDT FRI AUG 01 2014

NOTES: SATELLITE DATA IS BEING USED TO AUGMENT CLOUD COVER ABOVE
       12000 FEET.
       "FAIR" INDICATES FEW OR NO CLOUDS BELOW 12,000 FEET WITH NO
       SIGNIFICANT WEATHER AND/OR OBSTRUCTIONS TO VISIBILITY.

  * THESE STATIONS DO NOT REPORT WEATHER SUCH AS RAIN...SNOW OR FOG.

NEZ001>004-019>022-054>056-010900-
NEBRASKA PANHANDLE

CITY           SKY/WX    TMP DP  RH WIND       PRES   REMARKS
SCOTTSBLUFF    CLEAR     58  50  75 CALM      30.19S
ALLIANCE       CLEAR     51  44  77 W7        30.17F
CHADRON        PTCLDY    56  47  71 CALM      30.14S
KIMBALL        CLEAR     56  50  80 CALM      30.23S
SIDNEY         CLEAR     56  44  64 SE3       30.21S
$$

NEZ057>060-069>072-079>082-010900-
SOUTHWEST NEBRASKA

CITY           SKY/WX    TMP DP  RH WIND       PRES   REMARKS
NORTH PLATTE   CLEAR     55  51  86 W5        30.12S
IMPERIAL       CLEAR     62  55  77 CALM      30.15S
LEXINGTON      CLEAR     57  55  93 W6        30.09S
MCCOOK         PTCLDY    60  57  89 SW5       30.11S
OGALLALA       CLEAR     54  50  86 CALM      30.15S
$$

NEZ005>010-023>029-035>040-094-010900-
NORTH CENTRAL NEBRASKA

CITY           SKY/WX    TMP DP  RH WIND       PRES   REMARKS
VALENTINE      CLEAR     62  58  86 CALM      30.11S
AINSWORTH      CLEAR     59  59  99 S6        30.11S
BROKEN BOW     CLEAR     58  56  93 N3        30.09F
O`NEILL          N/A     61  60  99 CALM      30.09S FOG
ORD            CLEAR     59  58  96 NW5       30.07S
THEDFORD       CLEAR     58  55  88 CALM      30.13F
$$

NEZ041-046>049-061>064-073>077-083>087-010900-
SOUTH CENTRAL NEBRASKA

CITY           SKY/WX    TMP DP  RH WIND       PRES   REMARKS
GRAND ISLAND   CLEAR     62  59  90 N5        30.05F
AURORA         CLEAR     62  62 100 N5        30.04S FOG
HASTINGS       CLEAR     62  57  83 N5        30.05S
HEBRON         CLEAR     65  53  65 SW5       30.02F
HOLDREGE       CLEAR     60  58  94 NW3       30.07S
KEARNEY *      CLEAR     63  59  88 NW6       30.07S
YORK           CLEAR     59  59 100 NE5       30.04R
$$

NEZ011>018-030>034-042>045-010900-
NORTHEAST NEBRASKA

CITY           SKY/WX    TMP DP  RH WIND       PRES   REMARKS
NORFOLK        CLEAR     60  57  89 CALM      30.06S
ALBION         CLEAR     58  56  92 CALM      30.07S
BLAIR          MOCLDY    64  61  88 E9        30.06F
COLUMBUS *     CLEAR     61  55  82 E6        30.05S
FREMONT        CLOUDY    68  61  77 NE5       30.05S
TEKAMAH        MOCLDY    64  60  87 S3        30.06R
WAYNE          MOCLDY    56  56  97 CALM      30.07S FOG
$$

NEZ050>053-065>068-078-088>093-010900-
SOUTHEAST NEBRASKA

CITY           SKY/WX    TMP DP  RH WIND       PRES   REMARKS
LINCOLN        PTCLDY    69  58  67 SE10      30.04S
OMAHA EPPLEY   CLOUDY    68  63  84 E8        30.06F
BEATRICE       PTCLDY    66  59  77 SE8       30.03S
FALLS CITY     CLOUDY    66  61  84 E6        30.06S
NEBRASKA CITY  LGT RAIN  66  61  81 SE7       30.07F
PLATTSMOUTH    CLOUDY    65  61  87 CALM      30.08R
$$

NEZ044-045-051>053-067-010900-
OMAHA AREA

CITY           SKY/WX    TMP DP  RH WIND       PRES   REMARKS
OMAHA EPPLEY   CLOUDY    68  63  84 E8        30.06F
BLAIR          MOCLDY    64  61  88 E9        30.06F
FREMONT        CLOUDY    68  61  77 NE5       30.05S
MILLARD        CLOUDY    68  61  78 SE7       30.06S
OFFUTT AFB     MOCLDY    66  66  99 E6        30.06F
PLATTSMOUTH    CLOUDY    65  61  87 CALM      30.08R
WAHOO          FAIR      64  60  88 NE3       30.04F
$$


USA.gov is the U.S. government's official web portal to all federal, state and local government web resources and services.